Location: Bandys
(35.4750°N, 81.0830°W)
Time: 01:52:16
(UTC-04:00)

Daily predictions for brighter satellites

Satellite Brightness Start Highest point End
(mag) Time Altitude Azimuth Time Altitude Azimuth Time Altitude Azimuth
Cosmos 1953 4.3 00:04:34 10° NNW 00:06:37 26° NW 00:06:37 26° NW
Nadezhda 4 Rocket 4.2 00:08:39 62° WSW 00:09:05 63° W 00:15:23 10° N
COSMOS 2406 3.5 00:09:27 62° WNW 00:09:27 62° WNW 00:15:06 10° NNE
USA 238 DEB 4.2 00:13:44 37° WSW 00:16:26 59° NW 00:23:25 10° NNE
USA 238 4.2 00:13:55 38° WSW 00:16:32 59° NW 00:23:32 10° NNE
Cosmos 1655 Rocket 4.3 00:22:30 56° ENE 00:22:30 56° ENE 00:27:50 10° NNE
Terra 3.6 00:22:47 24° WNW 00:22:47 24° WNW 00:25:44 10° NW
CZ-4C R/B 3.4 00:26:51 32° NE 00:26:51 32° NE 00:30:04 10° NE
Cosmos 2082 Rocket 4.4 00:32:38 14° ENE 00:32:38 14° ENE 00:33:52 10° ENE
H-2A R/B 4.1 00:38:18 17° W 00:38:18 17° W 00:40:49 10° NW
Cosmos 1943 Rocket 3.7 00:42:57 10° NW 00:46:20 27° WNW 00:46:20 27° WNW
Meteor 1-24 Rocket 4.2 00:48:55 61° NNE 00:48:55 61° NNE 00:53:45 10° N
Cosmos 2026 Rocket 4.2 00:49:48 65° NNW 00:49:48 65° NNW 00:55:02 10° N
NOSS 3-2 (C) 3.8 00:51:59 59° NE 00:51:59 59° NE 00:57:15 10° NNE
Cosmos 2344 3.6 01:17:28 69° ESE 01:17:28 69° ESE 01:25:29 10° NE
CZ-2C R/B 3.8 01:12:27 10° NNE 01:16:07 37° NE 01:16:07 37° NE
Cosmos 2369 4.4 01:28:45 10° NNW 01:33:02 51° N 01:33:02 51° N
NOSS 3-2 (A) 4.4 01:34:42 37° WNW 01:35:27 39° NW 01:41:35 10° NNE
Cosmos 2315 Rocket 4.2 01:50:23 10° N 01:56:08 66° NE 01:56:08 66° NE
Cosmos 1980 Rocket 3.8 01:52:49 10° N 01:57:31 26° ENE 01:58:50 24° E
Cosmos 2266 Rocket 4.4 02:02:30 55° WNW 02:02:30 55° WNW 02:08:12 10° N
USA 215 3.8 02:00:50 10° NE 02:05:58 44° E 02:05:58 44° E
Lacrosse 5 3.6 02:08:36 10° NNW 02:12:59 29° NE 02:15:00 22° ENE
CZ-4C R/B 4.1 02:12:00 19° WNW 02:13:25 21° NW 02:17:50 10° N
Cosmos 2082 Rocket 2.9 02:14:28 46° NW 02:14:28 46° NW 02:19:09 10° N
Cosmos 1697 Rocket 3.1 02:12:38 10° NNW 02:17:38 60° NNE 02:17:38 60° NNE
Cosmos 1833 Rocket 3.3 02:23:37 50° NW 02:23:37 50° NW 02:28:21 10° NNE
CZ-2C R/B 3.8 02:30:16 49° NW 02:30:16 49° NW 02:34:33 10° NNW
ATLAS 5 CENTAUR R/B 4.3 02:32:26 12° E 02:32:26 12° E 02:33:34 10° E
BREEZE-M TANK 3.9 02:20:46 10° WSW 02:32:38 51° NNW 02:36:02 10° NE
CENTAUR R/B 2.5 02:37:40 70° NW 02:37:40 70° NW 02:44:22 10° NNE
Cosmos 968 Rocket 4.3 02:39:19 45° ENE 02:39:19 45° ENE 02:43:24 10° NNE
Meteor 2-11 Rocket 4.4 02:35:16 10° N 02:41:06 79° NW 02:41:06 79° NW
Cosmos 1726 4.5 02:38:04 10° N 02:39:41 23° NNE 02:39:41 23° NNE
Aureole 1 Rocket 4.0 02:46:09 10° NNW 02:49:58 55° NW 02:49:58 55° NW
Meteor 1-27 4.2 02:46:40 10° N 02:52:25 85° NE 02:52:25 85° NE
SL-08 R/B 4.3 02:53:14 75° WNW 02:53:14 75° WNW 02:59:16 10° N
IRS-P3 4.2 02:49:53 10° NNE 02:54:57 69° E 02:54:57 69° E
CZ-2C R/B 4.5 02:53:50 10° NNW 02:57:37 19° WNW 02:57:38 19° WNW
Cosmos 1626 4.3 02:59:56 22° ENE 02:59:56 22° ENE 03:02:10 10° NE
SL-16 R/B 3.8 02:54:14 10° N 02:59:16 31° ENE 03:03:59 11° ESE
Cosmos 1538 Rocket 4.5 02:57:22 10° N 03:02:31 56° ENE 03:03:12 52° E
Cosmos 2242 Rocket 4.3 03:02:50 10° N 03:06:04 48° N 03:06:04 48° N
Cosmos 1703 4.5 03:11:01 41° N 03:11:01 41° N 03:13:40 10° N
OAO 3 Rocket 4.1 03:13:19 39° E 03:13:19 39° E 03:16:20 10° E
Cosmos 2322 Rocket 3.2 03:06:23 10° N 03:11:44 43° ENE 03:15:23 19° SE
Cosmos 1633 Rocket 4.1 03:13:20 38° NNW 03:13:20 38° NNW 03:16:26 10° N
Cosmos 1777 Rocket 4.0 03:14:31 69° ESE 03:14:38 69° ESE 03:19:54 10° NNE
Cosmos 332 Rocket 4.5 03:17:09 10° NNW 03:20:35 43° NW 03:20:35 43° NW
Cosmos 1271 Rocket 3.8 03:19:22 10° N 03:22:18 43° NE 03:22:18 43° NE
CBERS-1 3.8 03:20:29 10° NNE 03:25:37 87° WNW 03:25:50 82° SSW
SL-08 R/B 3.2 03:27:43 87° W 03:27:43 87° W 03:32:37 10° NNW
Cosmos 1470 Rocket 3.8 03:31:57 60° NW 03:31:57 60° NW 03:35:49 10° N
Lacrosse 5 rocket 3.1 03:29:00 10° NNW 03:33:03 35° NE 03:37:14 10° ESE
ARIANE 5 R/B 3.4 03:29:11 10° NNE 03:33:58 41° E 03:35:28 33° SE
Cosmos 1933 Rocket 3.9 03:36:33 55° NW 03:36:33 55° NW 03:40:21 10° N
H-2A R/B 4.1 02:13:38 10° W 03:37:06 62° SSW 03:43:18 10° ESE
ADEOS 3.5 03:32:35 10° NNE 03:37:50 86° ESE 03:38:41 64° S
Cosmos 1980 Rocket 3.0 03:36:23 10° NW 03:40:33 35° W 03:40:33 35° W
Cosmos 2360 Rocket 4.2 03:37:33 10° N 03:42:18 27° ENE 03:47:02 10° ESE
CZ-2D R/B 3.3 03:37:54 10° NNE 03:42:41 35° E 03:45:19 22° SSE
ERS-2 4.0 03:40:52 10° NNW 03:42:57 23° NW 03:42:57 23° NW
SL-16 R/B 3.6 03:39:02 10° SE 03:44:54 45° ENE 03:50:49 10° N
USA 215 4.0 03:43:52 10° NNE 03:50:00 45° NW 03:53:19 26° W
NPP 4.2 03:45:15 10° N 03:50:17 42° WNW 03:51:03 39° W
USA 161 4.2 03:54:45 13° N 03:54:45 13° N 03:55:03 10° N
Cosmos 2219 4.5 03:50:55 20° SSE 03:53:57 34° ESE 03:59:03 10° NE
Lacrosse 5 3.0 03:51:16 10° NW 03:54:01 29° WNW 03:54:01 29° WNW
Meteor 1-4 Rocket 3.6 03:56:02 10° NNW 03:58:38 35° NW 03:58:38 35° NW
Cosmos 1709 Rocket 4.2 03:59:11 41° SW 04:01:04 56° W 04:07:15 10° N
Meteor 2-10 4.4 03:58:50 10° NNW 04:03:50 44° W 04:04:30 42° WSW
Cosmos 2112 Rocket 4.2 04:04:49 10° NNW 04:10:00 68° ENE 04:15:10 10° SSE
Okean O Rocket 3.4 04:07:42 10° NE 04:11:28 27° E 04:14:57 11° SSE
SEDSat Delta rocket 4.0 04:10:49 30° WSW 04:14:14 60° S 04:20:45 10° ESE
Cosmos 1862 Rocket 4.3 04:10:11 10° NNW 04:14:12 35° W 04:14:12 35° W
Cosmos 1455 3.2 04:11:11 10° NNW 04:13:56 31° WNW 04:13:56 31° WNW
ATLAS 5 CENTAUR R/B 2.0 04:13:59 42° WSW 04:15:28 63° WNW 04:20:36 10° NNE
Cosmos 1346 3.8 04:16:14 44° NW 04:16:14 44° NW 04:18:42 10° N
H-2A R/B 3.4 04:14:58 27° WSW 04:18:20 70° S 04:50:12 10° ESE
Cosmos 1833 4.3 04:22:23 33° SW 04:25:01 67° WNW 04:30:45 10° NNE
Cosmos 304 Rocket 3.7 04:22:44 10° NNW 04:27:35 79° WSW 04:32:03 12° SSE
Cosmos 2221 Rocket 3.6 04:27:35 10° NNW 04:32:03 66° W 04:34:36 25° S
OAO 1 4.5 04:30:23 28° WSW 04:33:19 75° S 04:38:50 10° E
Cosmos 1626 4.1 04:34:40 16° WNW 04:34:40 16° WNW 04:36:47 10° NW
Resurs 1-4 Rocket 2.1 04:30:31 10° N 04:35:49 69° WNW 04:39:02 24° SSW
Cosmos 1869 Rocket 3.8 04:35:04 33° SW 04:36:44 52° W 04:41:03 10° N
UNKNOWN OBJECT B 2.7 04:35:01 10° N 04:38:50 80° WNW 04:40:49 28° SSW
Cosmos 2298 Rocket 4.0 04:35:53 25° SSW 04:39:02 79° WNW 04:44:24 10° NNE
SL-16 R/B 2.9 04:38:20 10° NW 04:43:15 31° WSW 04:45:43 22° SW
ISS -2.2 04:41:53 10° NW 04:45:02 46° NE 04:48:11 10° ESE
CZ-2C R/B 4.0 04:43:34 10° SSE 04:47:59 67° ENE 04:52:30 10° N
SME Rocket 4.0 04:41:54 10° SSE 04:49:20 84° ENE 04:54:14 10° NNW
UNK 3.9 04:47:01 17° S 04:50:16 49° W 04:54:43 10° NNW
Meteor 2-3 Rocket 3.8 04:45:06 13° S 04:50:17 90° SE 04:56:08 10° N
USA 229 DEB 3.7 04:46:06 20° SW 04:51:07 81° WNW 04:58:08 10° NNE
USA 229 3.7 04:46:10 20° SW 04:51:13 81° WNW 04:58:14 10° NNE
OAO 3 Rocket 3.0 04:51:08 14° W 04:55:09 78° S 04:59:52 10° ESE
Cosmos 2322 Rocket 3.4 04:51:13 10° NW 04:55:25 22° W 04:57:05 19° SW
Cosmos 1680 Rocket 4.1 04:52:47 10° NW 04:57:26 34° W 05:01:25 13° SSW
Cosmos 2341 Rocket 4.4 04:51:18 10° S 04:57:29 66° E 05:03:47 10° NNE
SL-24 DEB 4.2 04:53:00 10° N 04:57:40 80° W 05:02:14 10° S
ASTRO F (AKARI) 4.3 04:57:08 10° S 05:00:23 63° WSW 05:03:34 10° NNW
ATLAS CENTAUR R/B 2.9 04:56:18 10° NNW 05:00:43 43° NE 05:04:47 10° SE
CZ-2D R/B 3.5 04:58:44 10° N 05:02:48 57° WNW 05:05:54 16° SSW
Cosmos 2219 Rocket 4.3 05:00:01 10° N 05:04:56 31° ENE 05:09:49 10° ESE
GOES 2 Rocket 4.3 05:03:19 17° SSW 05:05:36 25° S 05:09:05 10° ESE
Coronas F rocket 3.5 05:05:19 10° SSE 05:07:39 26° E 05:10:00 10° NNE
GPS 2-05 Rocket1 2.7 05:06:56 14° W 05:09:44 86° N 05:13:13 10° E
CZ-4B R/B 3.1 05:05:46 10° NNE 05:09:50 75° ESE 05:14:06 10° S
Cosmos 1733 Rocket 3.0 05:05:32 10° S 05:09:51 89° ESE 05:14:14 10° N
Thor Agena Rocket 3.6 05:05:27 10° SSE 05:10:44 89° WSW 05:16:04 10° NNW
PSLV R/B 3.9 05:06:56 10° N 05:10:50 59° WNW 05:14:31 12° SSW
Lacrosse 5 rocket 2.4 05:08:27 10° WNW 05:12:15 27° WSW 05:16:07 10° S
ARIANE 5 R/B 4.0 05:09:08 10° NNW 05:12:46 20° WNW 05:15:49 12° WSW
IRS-1C Rocket 4.3 05:07:37 10° N 05:12:46 55° WNW 05:17:49 10° SSW
Cosmos 2154 Rocket 4.0 05:08:04 10° SSW 05:14:21 72° W 05:20:43 10° N
Nadezhda 3 Rocket 4.0 05:08:28 10° N 05:14:38 87° W 05:20:47 10° S
Cosmos 220 Rocket 4.0 05:12:47 10° SSW 05:17:00 87° ESE 05:21:18 10° NNE
Sich 1 Rocket 3.9 05:16:44 10° S 05:21:06 70° E 05:25:28 10° NNE
Centaur D-1AR AC-48 4.1 05:07:46 10° WSW 05:21:42 29° SSW 05:26:15 10° SE
CZ-2D R/B 3.3 05:18:21 10° NNW 05:22:34 25° WNW 05:26:39 11° WSW
Cosmos 389 Rocket 2.5 05:19:34 10° NNW 05:23:16 66° W 05:26:54 10° S
Cosmos 1898 Rocket 4.3 05:20:38 12° SW 05:24:51 34° WNW 05:29:33 10° N
Cosmos 1782 3.5 05:21:20 10° N 05:25:18 58° E 05:29:13 10° SSE
Cosmos 2227 Rocket 3.0 05:20:23 10° S 05:25:49 51° ESE 05:31:16 10° NNE
Cosmos 2360 Rocket 2.7 05:21:13 10° NW 05:26:18 36° WSW 05:31:23 10° S
SL-16 R/B 3.5 05:23:36 10° SSW 05:28:38 25° W 05:33:43 10° NW
Cosmos 1125 Rocket 4.4 05:25:04 10° S 05:30:07 50° ESE 05:35:15 10° NNE
Cosmos 1356 Rocket 3.9 05:26:08 10° S 05:30:12 60° E 05:34:12 10° NNE
Cosmos 1937 Rocket 4.1 05:27:51 10° SW 05:32:51 42° WNW 05:37:53 10° N
CZ-4B R/B 3.5 05:28:06 10° N 05:33:25 53° WNW 05:38:47 10° SSW
Intercosmos 24 Rocket 4.2 05:29:52 10° S 05:34:03 80° W 05:37:36 10° N
Cosmos 1862 4.4 05:32:50 10° SSE 05:36:41 48° E 05:40:31 10° NNE
Cosmos 2219 4.3 05:33:05 10° WSW 05:38:04 30° WNW 05:43:05 10° N
Cosmos 2333 4.2 05:32:33 10° NNW 05:38:13 84° WSW 05:43:54 10° SSE
Iridium 4 Rocket 3.3 05:34:25 10° N 05:38:40 70° E 05:42:48 10° S
Cosmos 1606 3.7 05:39:52 10° N 05:43:34 50° E 05:47:14 10° SSE
Cosmos 1340 Rocket 2.9 05:39:39 10° SSW 05:43:39 60° W 05:47:38 10° N
Meteor 2-10 Rocket 3.5 05:38:42 10° NNW 05:43:41 61° W 05:48:49 10° S
Cosmos 1908 Rocket 3.6 05:39:54 10° S 05:44:20 85° W 05:48:45 10° N
